Weather History for Dublin, Ireland

Change the Weather History Date:

Wednesday, November 2, 2011

  Actual Average Record
Temperature  
Mean Temperature 53 °F -  
Max Temperature 57 °F 50 °F 62 °F (2005)
Min Temperature 49 °F 40 °F 32 °F (2006)
Degree Days  
Heating Degree Days 12    
Growing Degree Days 3 (Base 50)    
Moisture  
Dew Point 52 °F    
Average Humidity 87    
Maximum Humidity 100    
Minimum Humidity 72    
Precipitation  
Precipitation 0.03 in 0.09 in - ()
Sea Level Pressure  
Sea Level Pressure 29.32 in    
Wind  
Wind Speed 20 mph ()    
Max Wind Speed 29 mph    
Max Gust Speed 43 mph    
Visibility 6.3 miles    
Events Rain    
Averages and records for this station are not official NWS values.
T = Trace of Precipitation, MM = Missing Value Source: Averaged Metar Reports

Daily Weather History Graph

Daily Weather History Graph

Search for Another Location

Airport:

Trip Planner

Search our weather history database for the weather conditions in past years. The results will help you decide how hot, cold, wet, or windy it might be!

Date:

Astronomy

Nov. 02, 2011 Rise Set
Actual Time 7:25 AM GMT 4:51 PM GMT
Civil Twilight 6:48 AM GMT 5:28 PM GMT
Nautical Twilight 6:06 AM GMT 6:09 PM GMT
Astronomical Twilight 5:26 AM GMT 6:50 PM GMT
Moon 1:39 PM GMT (11/2) 11:25 PM GMT (11/2)
Length of Visible Light 10h 40m
Length of Day
9h 26m
Waxing Crescent, 48% of the Moon is Illuminated
Nov 2
Waxing Crescent
Nov 2
First Quarter
Nov 10
Full
Nov 18
Last Quarter
Nov 25
New

Hourly Weather History & Observations

Time (GMT) Temp. Dew Point Humidity Pressure Visibility Wind Dir Wind Speed Gust Speed Precip Events Conditions
12:00 AM 53 °F 50 °F 85% 29.56 in 12 mi SSE 17.9 mph - - Rain Light Rain
12:00 AM 53.6 °F 50.0 °F 88% 29.53 in 6.2 mi SSE 18.4 mph - N/A Rain Light Rain
12:30 AM 55.4 °F 50.0 °F 82% 29.53 in 6.2 mi SSE 18.4 mph - N/A   Mostly Cloudy
1:00 AM 55.4 °F 48.2 °F 77% 29.53 in 6.2 mi SSE 17.3 mph - N/A   Mostly Cloudy
1:30 AM 55.4 °F 48.2 °F 77% 29.53 in 6.2 mi SSE 19.6 mph - N/A   Scattered Clouds
2:00 AM 55.4 °F 48.2 °F 77% 29.50 in 6.2 mi SSE 18.4 mph - N/A   Mostly Cloudy
2:30 AM 55.4 °F 50.0 °F 82% 29.47 in 6.2 mi SSE 21.9 mph - N/A Rain Light Rain
3:00 AM 57.2 °F 48.2 °F 72% 29.47 in 6.2 mi SSE 19.6 mph - N/A   Mostly Cloudy
3:30 AM 57.2 °F 50.0 °F 77% 29.44 in 6.2 mi SSE 20.7 mph - N/A   Mostly Cloudy
4:00 AM 55.4 °F 50.0 °F 82% 29.44 in 6.2 mi SSE 20.7 mph - N/A   Mostly Cloudy
4:30 AM 55.4 °F 50.0 °F 82% 29.44 in 6.2 mi SSE 20.7 mph - N/A   Mostly Cloudy
5:00 AM 55.4 °F 50.0 °F 82% 29.44 in 6.2 mi SSE 21.9 mph 33.4 mph N/A   Mostly Cloudy
5:30 AM 55.4 °F 50.0 °F 82% 29.44 in 6.2 mi SSE 18.4 mph - N/A   Mostly Cloudy
6:00 AM 56 °F 50 °F 75% 29.44 in 12 mi SSE 15.7 mph - - Rain Light Rain
6:00 AM 55.4 °F 50.0 °F 82% 29.42 in 6.2 mi SSE 15.0 mph - N/A Rain Light Rain
6:30 AM 55.4 °F 50.0 °F 82% 29.42 in 6.2 mi SE 17.3 mph - N/A Rain Light Rain
7:00 AM 55.4 °F 50.0 °F 82% 29.42 in 6.2 mi SE 15.0 mph - N/A Rain Light Rain
7:30 AM 55.4 °F 50.0 °F 82% 29.42 in 6.2 mi SSE 17.3 mph - N/A   Mostly Cloudy
8:00 AM 57.2 °F 50.0 °F 77% 29.39 in 6.2 mi SSE 17.3 mph - N/A   Mostly Cloudy
8:30 AM 57.2 °F 50.0 °F 77% 29.39 in 6.2 mi SSE 21.9 mph - N/A   Mostly Cloudy
9:00 AM 57.2 °F 50.0 °F 77% 29.39 in 6.2 mi SSE 23.0 mph 34.5 mph N/A   Mostly Cloudy
10:00 AM 55.4 °F 50.0 °F 82% 29.36 in 6.2 mi SSE 21.9 mph 33.4 mph N/A Rain Light Rain
11:00 AM 55.4 °F 51.8 °F 88% 29.33 in 6.2 mi SSE 24.2 mph 38.0 mph N/A Rain Light Rain
11:30 AM 55.4 °F 51.8 °F 88% 29.33 in 6.2 mi SSE 26.5 mph - N/A Rain Light Rain
12:00 PM 56 °F 52 °F 81% 29.33 in 12 mi SSE 29.1 mph - - Rain Light Rain
12:00 PM 55.4 °F 51.8 °F 88% 29.33 in 6.2 mi SSE 27.6 mph 42.6 mph N/A Rain Light Rain
12:30 PM 55.4 °F 51.8 °F 88% 29.30 in 6.2 mi SSE 26.5 mph - N/A Rain Light Rain
1:00 PM 55.4 °F 51.8 °F 88% 29.30 in 6.2 mi SSE 26.5 mph - N/A Rain Light Rain
1:30 PM 55.4 °F 53.6 °F 94% 29.30 in 6.2 mi SSE 27.6 mph 39.1 mph N/A Rain Light Rain
2:00 PM 55.4 °F 53.6 °F 94% 29.27 in 6.2 mi SSE 25.3 mph - N/A Rain Light Rain
2:30 PM 55.4 °F 53.6 °F 94% 29.24 in 6.2 mi SSE 21.9 mph - N/A Rain Light Rain
3:00 PM 55.4 °F 53.6 °F 94% 29.24 in 5.0 mi SSE 26.5 mph - N/A Rain Light Rain
3:30 PM 55.4 °F 53.6 °F 94% 29.21 in 6.2 mi SSE 27.6 mph - N/A Rain Light Rain
4:00 PM 55.4 °F 53.6 °F 94% 29.21 in 6.2 mi SSE 24.2 mph 38.0 mph N/A   Mostly Cloudy
4:30 PM 55.4 °F 53.6 °F 94% 29.21 in 2.5 mi SE 24.2 mph - N/A Rain Light Rain
5:00 PM 55.4 °F 53.6 °F 94% 29.21 in 5.0 mi SSE 23.0 mph - N/A Rain Light Rain
5:30 PM 55.4 °F 53.6 °F 94% 29.21 in 5.6 mi SSE 26.5 mph - N/A   Light Drizzle
6:00 PM 56 °F 54 °F 89% 29.20 in 9 mi SE 24.6 mph - - Rain Light Drizzle
6:00 PM 57.2 °F 53.6 °F 88% 29.18 in 6.2 mi SSE 26.5 mph - N/A   Light Drizzle
6:30 PM 57.2 °F 53.6 °F 88% 29.18 in 6.2 mi SSE 25.3 mph - N/A   Light Drizzle
7:00 PM 57.2 °F 53.6 °F 88% 29.18 in 6.2 mi SSE 25.3 mph - N/A   Mostly Cloudy
7:30 PM 57.2 °F 53.6 °F 88% 29.18 in 5.6 mi SSE 24.2 mph - N/A   Light Drizzle
8:00 PM 55.4 °F 53.6 °F 94% 29.15 in 5.6 mi SE 27.6 mph 39.1 mph N/A Rain Light Rain
8:30 PM 55.4 °F 55.4 °F 100% 29.12 in 5.0 mi SE 26.5 mph - N/A Rain Light Rain
9:00 PM 55.4 °F 55.4 °F 100% 29.12 in 5.6 mi SE 27.6 mph 40.3 mph N/A Rain Light Rain
9:30 PM 55.4 °F 55.4 °F 100% 29.12 in 3.7 mi SE 27.6 mph 39.1 mph N/A Rain Light Rain
10:00 PM 57.2 °F 55.4 °F 94% 29.12 in 3.7 mi SE 25.3 mph 41.4 mph N/A Rain Light Rain
10:30 PM 57.2 °F 55.4 °F 94% 29.09 in 6.2 mi SSE 28.8 mph - N/A Rain Light Rain
11:00 PM 57.2 °F 55.4 °F 94% 29.09 in 6.2 mi SSE 18.4 mph - N/A   Mostly Cloudy
11:30 PM 57.2 °F 53.6 °F 88% 29.09 in 6.2 mi SSE 18.4 mph - N/A   Mostly Cloudy